NOAA-18
1 28654U 05018A 23005.54352627 .00000210 00000-0 13700-3 0 9990
2 28654 98.9292 80.6136 0015150 119.1991 241.0699 14.12833220908513
CO-58
1 28895U 05043F 23005.34179399 .00001575 00000-0 30391-3 0 9996
2 28895 98.1306 138.9921 0015684 222.6590 137.3396 14.64789962916963
Falconsat-3
1 30776U 07006E 23005.28905439 .00392910 59351-4 11071-2 0 9999
2 30776 35.4235 354.8276 0009108 203.3180 156.7152 15.92368864881227
CO-65
1 32785U 08021C 23005.43761618 .00003331 00000-0 34630-3 0 9991
2 32785 97.6846 335.2991 0011027 286.5538 73.4468 14.90513117796564
AAUSAT2
1 32788U 08021F 23004.91543338 .00007931 00000-0 64786-3 0 9998
2 32788 97.5566 348.5849 0010278 151.6124 208.5662 14.99613254798701
DO-64
1 32789U 08021G 23005.01834453 .00028745 00000-0 13351-2 0 9999
2 32789 97.3225 29.5780 0008663 352.9035 7.2076 15.19928851802472
CO-66
1 32791U 08021J 23005.34455168 .00005566 00000-0 52620-3 0 9999
2 32791 97.6366 340.5115 0010960 231.9354 128.0879 14.94033285797325
RS-30
1 32953U 08025A 23005.06761900 .00000024 00000-0 10000-3 0 9996
2 32953 82.5042 58.5523 0019752 176.9205 183.1999 12.43117028663382
PRISM
1 33493U 09002B 23005.22972763 .00008618 00000-0 65900-3 0 9997
2 33493 98.2453 8.8508 0016665 230.8989 129.0753 15.02086208759243
NOAA-19
1 33591U 09005A 23005.56801706 .00000191 00000-0 12777-3 0 9996
2 33591 99.1244 48.7153 0013541 344.0555 16.0188 14.12661697716988
SRMSAT
1 37841U 11058D 23005.61450308 .00000422 00000-0 86712-4 0 9991
2 37841 19.9716 112.8792 0012024 45.3816 342.9970 14.10809490579825
HRBE
1 37855U 11061F 23005.60877291 .00015947 00000-0 62574-3 0 9990
2 37855 101.7125 237.7735 0140330 174.6232 185.6532 15.17207477611837
RS-40
1 38735U 12041C 23005.43068225 .00000034 00000-0 17263-3 0 9993
2 38735 82.4764 139.5861 0016519 291.6376 68.2947 12.42589913473608
ZACUBE-1
1 39417U 13066B 23005.48400411 .00002902 00000-0 35093-3 0 9998
2 39417 97.6641 333.2668 0058248 101.6681 259.1078 14.83238120493066
Delfi-N3xt
1 39428U 13066N 23005.53160563 .00006121 00000-0 92125-3 0 9993
2 39428 97.8289 296.4477 0115091 352.0885 7.8502 14.70356906488393
GOMX-1
1 39430U 13066Q 23005.15819098 .00001492 00000-0 26985-3 0 9995
2 39430 97.7970 265.7329 0148887 128.2441 233.2276 14.60785091485735
LO-74
1 39440U 13066AA 23005.29060456 .00002338 00000-0 31673-3 0 9997
2 39440 97.7536 319.7392 0077050 195.5318 164.3529 14.77842339490083
AO-73
1 39444U 13066AE 23005.47716760 .00004011 00000-0 46830-3 0 9998
2 39444 97.6509 335.7073 0056935 88.8270 271.9468 14.84518375492076
SPROUT
1 39770U 14029E 23005.07744561 .00012641 00000-0 11810-2 0 9993
2 39770 97.9559 128.9002 0008574 136.3635 223.8292 14.94267449467730
DTUSAT-2
1 40030U 14033W 23005.05809875 .00003832 00000-0 39263-3 0 9992
2 40030 97.9546 303.9056 0012797 107.0916 253.1705 14.91018343463678
EO-80
1 40032U 14033Y 23005.57041093 .00004536 00000-0 46387-3 0 9998
2 40032 97.9552 304.4379 0012784 106.7886 253.4735 14.91004717464249
HODOYOSHI-1
1 40299U 14070B 23005.50078888 .00008392 00000-0 29678-3 0 9997
2 40299 97.2199 72.6792 0012541 133.8966 282.8190 15.29337901453917
FIREBIRD FU3
1 40377U 15003B 23005.57840190 .00041974 00000-0 95816-3 0 9991
2 40377 99.0793 281.6058 0083710 56.7073 304.2150 15.39076536439395
FIREBIRD FU4
1 40378U 15003C 23005.00526371 .00046019 00000-0 10474-2 0 9993
2 40378 99.0804 281.1636 0083714 58.1249 302.8102 15.39140627439317
GRIFEX
1 40379U 15003D 23005.16154064 .00021022 00000-0 64357-3 0 9994
2 40379 99.0864 264.5134 0104803 107.8080 253.4621 15.28548456438372
XW-2A
1 40903U 15049E 23005.44392973 .00057511 00000-0 54459-3 0 9995
2 40903 97.1499 70.4313 0008062 89.2059 37.7496 15.66746525410721
XW-2C
1 40906U 15049H 23005.49261299 .00009276 00000-0 41295-3 0 9998
2 40906 97.4959 12.6483 0013798 21.1123 130.1747 15.21602017403618
XW-2D
1 40907U 15049J 23005.47255532 .00010868 00000-0 46875-3 0 9998
2 40907 97.4946 12.8274 0012810 17.3953 128.6435 15.22648323403670
LILACSAT-2
1 40908U 15049K 23005.48997987 .00004939 00000-0 25121-3 0 9990
2 40908 97.5227 9.3247 0016001 41.3041 109.6105 15.17195549403108
XW-2E
1 40909U 15049L 23005.51328208 .00017715 00000-0 64581-3 0 9998
2 40909 97.4622 17.9865 0010543 352.7707 158.3796 15.28182304404218
XW-2F
1 40910U 15049M 23005.51270439 .00017654 00000-0 65441-3 0 9990
2 40910 97.4713 17.1748 0011541 353.4455 157.4979 15.27622390403978
XW-2B
1 40911U 15049N 23005.51756586 .00010681 00000-0 46273-3 0 9998
2 40911 97.4923 13.3963 0012845 17.9197 145.4628 15.22500921403565
DCBB
1 40912U 15049P 23005.52644116 .00020488 00000-0 67497-3 0 9992
2 40912 97.4307 21.5576 0009750 313.4768 197.5936 15.31457674404615
IO-86
1 40931U 15052B 23004.96274249 .00001336 00000-0 96214-4 0 9991
2 40931 5.9985 171.4874 0012078 143.5483 216.5525 14.76964027393189
AO-85
1 40967U 15058D 23004.02724969 .00003356 00000-0 37970-3 0 5782
2 40967 64.7736 181.2404 0169043 132.3061 229.2561 14.78344380 90301
ATHENOXAT-1
1 41168U 15077C 23005.38866459 .00033930 00000-0 11465-2 0 9996
2 41168 14.9835 26.7702 0008798 220.4259 176.7098 15.28558438391169
ChubuSat-2
1 41338U 16012B 23005.58934352 .00003358 00000-0 24155-3 0 9997
2 41338 31.0012 176.0670 0013089 359.4578 0.6042 15.02295978377891
ChubuSat-3
1 41339U 16012C 23005.51696591 .00002919 00000-0 20913-3 0 9991
2 41339 31.0094 173.4550 0013271 6.5002 34.0154 15.02297469377886
Horyu-4
1 41340U 16012D 23005.52941500 .00006113 00000-0 41509-3 0 9991
2 41340 31.0030 147.2612 0012783 53.8895 306.2923 15.04888294378173
e-st@r-II
1 41459U 16025D 23005.46901504 .00018276 00000-0 69718-3 0 9994
2 41459 98.1908 191.5578 0129902 301.5448 57.3175 15.19130685368109
AAUSAT4
1 41460U 16025E 23005.12273395 .00039715 00000-0 11888-2 0 9994
2 41460 98.1788 199.6886 0102360 270.5724 208.5473 15.29319020368642
LO-87
1 41557U 16033B 23005.47427873 .00025480 00000-0 60736-3 0 9991
2 41557 97.3889 109.3729 0009637 18.4472 112.0208 15.41515866368429
NuSat2
1 41558U 16033C 23005.50457733 .00023206 00000-0 52251-3 0 9991
2 41558 97.4143 116.2952 0009216 6.9280 56.6692 15.43249800368739
Lapan A3
1 41603U 16040E 23005.48652125 .00002221 00000-0 10199-3 0 9998
2 41603 97.1856 38.5215 0013197 162.3618 333.7321 15.21321471362745
Pratham
1 41783U 16059A 23005.53716728 .00000723 00000-0 14725-3 0 9997
2 41783 97.8900 43.7502 0031986 254.6345 105.1323 14.63568240335189
TY-1
1 41844U 16066D 23005.50743424 .00025862 00000-0 71687-3 0 9994
2 41844 97.3819 22.3127 0009304 291.9804 221.0382 15.36888203342568
CAS-2T
1 41847U 16066G 23005.43690197 .00000968 00000-0 15521-3 0 9992
2 41847 98.5274 74.6739 0361626 325.5476 32.2736 14.38996542323397
EO-88
1 42017U 17008BX 23005.14729388 .00043891 00000-0 96619-3 0 9991
2 42017 97.2443 74.1134 0002811 232.4367 127.6626 15.43830366328084
CAS-4B
1 42759U 17034B 23005.31015984 .00007776 00000-0 43460-3 0 9990
2 42759 43.0180 298.7147 0008835 129.4520 11.4884 15.13816596306921
CAS-4A
1 42761U 17034D 23005.53715286 .00007194 00000-0 40187-3 0 9996
2 42761 43.0186 296.0990 0009220 136.1707 32.8920 15.13916587306961
